Calgary Springbank, Alberta

6:48 PM MDT on August 27, 2016 (GMT -0600)
Springbank

Weather History for CYBW - March, 2013

Change the Weather History Date:

Saturday, March 2, 2013

  Actual Average Record
Temperature  
Mean Temperature 28 °F -  
Max Temperature 37 °F 35 °F 50 °F (2005)
Min Temperature 18 °F 14 °F -20 °F (2014)
Degree Days  
Heating Degree Days 38    
Moisture  
Dew Point 26 °F    
Average Humidity 90    
Maximum Humidity 100    
Minimum Humidity 68    
Precipitation  
Precipitation 0.00 in - - ()
Sea Level Pressure  
Sea Level Pressure 30.04 in    
Wind  
Wind Speed 4 mph ()    
Max Wind Speed 9 mph    
Max Gust Speed -    
Visibility 5.2 miles    
Events Fog    
Averages and records for this station are not official NWS values.
T = Trace of Precipitation, MM = Missing Value Source: Averaged Metar Reports

Daily Weather History Graph

Daily Weather History Graph

Search for Another Location

Airport or City:

Trip Planner

Search our weather history database for the weather conditions in past years. The results will help you decide how hot, cold, wet, or windy it might be!

Date:

Astronomy

Mar. 02, 2013 Rise Set
Actual Time 7:19 AM MST 6:20 PM MST
Civil Twilight 6:46 AM MST 6:53 PM MST
Nautical Twilight 6:07 AM MST 7:32 PM MST
Astronomical Twilight 5:29 AM MST 8:10 PM MST
Moon No Moon Rise 9:10 AM MST (3/2)
Length of Visible Light 12h 07m
Length of Day
11h 01m
Waning Gibbous, 73% of the Moon is Illuminated
Mar 2
Waning Gibbous
Mar 4
Last Quarter
Mar 11
New
Mar 19
First Quarter
Mar 27
Full

Hourly Weather History & Observations

Time (MST) Temp. Windchill Dew Point Humidity Pressure Visibility Wind Dir Wind Speed Gust Speed Precip Events Conditions
5:00 AM 23 °F - 22 °F 94% 30.09 in 0 mi Calm Calm - - Fog Heavy Fog
5:00 AM 23.0 °F - 21.2 °F 93% 30.08 in 0.0 mi Calm Calm - N/A Fog Light Freezing Fog
6:00 AM 23.0 °F 14.7 °F 21.2 °F 93% 30.12 in 0.0 mi SW 6.9 mph - N/A Fog Light Freezing Fog
7:00 AM 19.4 °F 14.3 °F 17.6 °F 93% 30.14 in 0.1 mi NNW 3.5 mph - N/A Fog Light Freezing Fog
7:06 AM 19.4 °F 14.3 °F 17.6 °F 93% 30.14 in 5.0 mi WNW 3.5 mph - N/A   Overcast
8:00 AM 19.4 °F 12.8 °F 17.6 °F 93% 30.13 in 30.0 mi ENE 4.6 mph - N/A   Overcast
9:00 AM 23.0 °F 15.8 °F 23.0 °F 100% 30.13 in 30.0 mi North 5.8 mph - N/A   Overcast
10:00 AM 28.4 °F 23.3 °F 26.6 °F 93% 30.13 in 20.0 mi North 4.6 mph - N/A   Overcast
10:18 AM 28.4 °F 21.2 °F 28.4 °F 100% 30.13 in 4.0 mi North 6.9 mph - N/A   Overcast
11:00 AM 30 °F - 29 °F 97% 30.12 in 6 mi North 4.6 mph - -   Mist
11:00 AM 30.2 °F 25.4 °F 30.2 °F 100% 30.12 in 6.0 mi North 4.6 mph - N/A   Overcast
12:00 PM 30.2 °F 24.3 °F 30.2 °F 100% 30.11 in 6.0 mi NNW 5.8 mph - N/A   Overcast
1:00 PM 33.8 °F 30.8 °F 32.0 °F 93% 30.06 in 8.0 mi East 3.5 mph - N/A   Overcast
2:00 PM 35.6 °F 31.7 °F 30.2 °F 81% 30.03 in 10.0 mi ENE 4.6 mph - N/A   Overcast
3:00 PM 37.4 °F 32.1 °F 28.4 °F 70% 30.00 in 12.0 mi East 6.9 mph - N/A   Overcast
4:00 PM 37.4 °F 32.8 °F 28.4 °F 70% 29.98 in 8.0 mi East 5.8 mph - N/A   Overcast
5:00 PM 35 °F - 28 °F 68% 29.97 in 6 mi ESE 6.9 mph - -   Mist
5:00 PM 35.6 °F 29.9 °F 28.4 °F 75% 29.97 in 6.0 mi ESE 6.9 mph - N/A   Overcast
6:00 PM 32.0 °F 27.5 °F 26.6 °F 80% 29.96 in 3.0 mi SE 4.6 mph - N/A   Mostly Cloudy
7:00 PM 26.6 °F 20.0 °F 24.8 °F 93% 29.95 in 6.0 mi ESE 5.8 mph - N/A   Overcast
7:06 PM 26.6 °F 19.1 °F 24.8 °F 93% 29.95 in 7.0 mi ESE 6.9 mph - N/A   Mostly Cloudy
8:00 PM 26.6 °F 21.2 °F 26.6 °F 100% 29.92 in 0.2 mi ESE 4.6 mph - N/A Fog Light Freezing Fog
9:00 PM 24.8 °F 17.9 °F 24.8 °F 100% 29.88 in 0.1 mi ESE 5.8 mph - N/A Fog Light Freezing Fog
10:00 PM 26.6 °F 17.5 °F 24.8 °F 93% 29.84 in 0.2 mi ENE 9.2 mph - N/A Fog Light Freezing Fog